USA 134

Last updated on Thu Oct 30 2025 00:02:47 GMT+0000 (Coordinated Universal Time)

1 25019U 97065A 25302.30416997 -.00000051 00000+0 00000+0 0 9990 2 25019 12.5079 23.4052 0004317 243.5089 128.3838 1.00274324 30644
UTC large
Height (km)
Speed (km/s)
/
Latitude / Longitude
Inclination (degrees)
Orbital Period (minutes)
Azimuth
Elevation
Range (km)
Doppler Factor

Next 0 passes for location: London (51.5072 / 0.1276)

Sorry there are no passes over London.